Location: Borovka
(49.7741°N, 14.5280°E)
Time: 16:21:49
(UTC+00:00)

BEESAT - Visible Passes

Search period start: 14 March 2026 00:00
Search period end: 24 March 2026 00:00
Orbit: 684 x 692 km, 98.4° (Epoch: 14 March)

Date Brightness Start Highest point End Pass type
(mag) Time Alt. Az. Time Alt. Az. Time Alt. Az.
15 Mar ? 23:04:08 10° N 23:04:13 10° N 23:04:13 10° N visible
16 Mar ? 23:42:48 10° N 23:43:05 11° N 23:43:05 11° N visible
17 Mar ? 22:43:16 10° NNE 22:43:22 11° NNE 22:43:22 11° NNE visible
18 Mar ? 23:21:44 10° N 23:22:14 13° N 23:22:14 13° N visible
19 Mar ? 22:22:30 10° NNE 22:22:30 10° NNE 22:22:30 10° NNE visible
20 Mar ? 00:00:34 10° N 00:01:06 12° NNW 00:01:06 12° NNW visible
20 Mar ? 23:00:46 10° N 23:01:22 14° N 23:01:22 14° N visible
21 Mar ? 23:39:22 10° N 23:40:14 15° N 23:40:14 15° N visible
22 Mar ? 22:39:53 10° NNE 22:40:30 14° NNE 22:40:30 14° NNE visible
23 Mar ? 00:18:27 10° NNW 00:19:05 12° NNW 00:19:05 12° NNW visible
23 Mar ? 23:18:18 10° N 23:19:21 16° N 23:19:21 16° N visible
